EUTELSAT HOTBIRD 13C

Last updated on Tue Sep 22 2026 00:03:11 GMT+0000 (Coordinated Universal Time)

1 33459U 08065A 26264.40786365 -.00000285 00000+0 00000+0 0 9996 2 33459 3.1905 77.9676 0003667 106.1778 272.6936 1.00271819 48318
UTC large
Height (km)
Speed (km/s)
/
Latitude / Longitude
Inclination (degrees)
Orbital Period (minutes)
Azimuth
Elevation
Range (km)
Doppler Factor

Next 0 passes for location: London (51.5072 / 0.1276)

No passes found over London.
EUTELSAT HOTBIRD 13C